Вернуться в каталог

STARLINK-30343

АктивенСвязьVLEO
NORAD 57753·PAYLOAD·🇺🇸 United States

Запущен Sep 1, 2023 с Cape Canaveral Space Force Station

Loading…

Ближайшие Пролёты (ближайшие 24 часа)

TLE

СвежийSource: CelesTrak SupGP

Эпоха: Sep 15, 2026, 03:11 UTC

1 57753C 23131X   26258.13312500 -.00036310  00000+0 -13150-2 0  2589
2 57753  43.0030 189.9484 0001140 275.5174  54.2184 15.27601568    15

Отслеживайте STARLINK-30343 в реальном времени с AllMySat

Download on the App Store